Location: Champs
(48.8539°N, 2.6040°E)
Time: 21:41:13
(UTC+00:00)

SPOT 1 Rocket Y - Pass Details

Date: 25 August 2022
Orbit: 784 x 832 km, 98.5° (Epoch: 06 October)

Event Time Altitude Azimuth Distance (km) Brightness Sun altitude
Exits shadow 20:31:36 12° 177° (S) 2,242 7.5 -16.1°
Maximum altitude 20:36:28 64° 258° (WSW) 899 6.0 -16.8°
Drops below altitude 10° 20:41:48 10° 340° (NNW) 2,427 9.0 -17.4°
Sets 20:44:12 0° 344° (NNW) 3,370 9.8 -17.7°
